Location: *
(51.8167°N, 12.5000°E)
Time: 10:43:22
(UTC+00:00)

Cosmos 2333 Rocket - Pass Details

Date: 16 September 2019
Orbit: 840 x 862 km, 70.8° (Epoch: 15 October)

Event Time Altitude Azimuth Distance (km) Brightness Sun altitude
Rises 18:11:04 0° 329° (NNW) 3,420 6.1 -8.1°
Reaches altitude 10° 18:13:31 10° 330° (NNW) 2,484 5.4 -8.5°
Maximum altitude 18:19:15 86° 57° (ENE) 861 2.2 -9.3°
Drops below altitude 10° 18:24:59 10° 149° (SSE) 2,483 4.2 -10.2°
Enters shadow 18:26:27 - 150° (SSE) 3,046 4.7 -10.4°
